• Em Portugal
  • Lista de países
  • Para 7 dias
  • Temperatura da água
  • Mapas de satélite
  • Mapa do tempo
  • Widgets de tempo
  • user-avatar
    Iniciar Sessão

    Previsão horária em Maun

    Hoje, 19 Agosto, Sábado

    Tempo Temperatura Precipitação Vento Pressão Humidade
    00:00 +12°C° 0 mm 2 m/s 683 mmHg 19%
    01:00 +12°C° 0 mm 2 m/s 683 mmHg 20%
    02:00 +10°C° 0 mm 2 m/s 683 mmHg 21%
    03:00 +10°C° 0 mm 2 m/s 683 mmHg 24%
    04:00 +9°C° 0 mm 2 m/s 683 mmHg 28%
    05:00 +9°C° 0 mm 2 m/s 683 mmHg 31%
    06:00 +10°C° 0 mm 3 m/s 683 mmHg 38%
    07:00 +11°C° 0 mm 3 m/s 684 mmHg 45%
    08:00 +12°C° 0 mm 4 m/s 684 mmHg 51%
    09:00 +15°C° 0 mm 4 m/s 685 mmHg 45%
    10:00 +19°C° 0 mm 4 m/s 686 mmHg 39%
    11:00 +22°C° 0 mm 3 m/s 686 mmHg 32%
    12:00 +25°C° 0 mm 3 m/s 686 mmHg 27%
    13:00 +28°C° 0 mm 2 m/s 685 mmHg 21%
    14:00 +30°C° 0 mm 1 m/s 685 mmHg 15%
    15:00 +30°C° 0 mm 1 m/s 685 mmHg 15%
    16:00 +29°C° 0 mm 1 m/s 684 mmHg 14%
    17:00 +29°C° 0 mm 1 m/s 684 mmHg 14%
    18:00 +26°C° 0 mm 2 m/s 684 mmHg 19%
    19:00 +23°C° 0 mm 2 m/s 683 mmHg 23%
    20:00 +19°C° 0 mm 3 m/s 683 mmHg 28%
    21:00 +19°C° 0 mm 3 m/s 684 mmHg 33%
    22:00 +18°C° 0 mm 3 m/s 684 mmHg 38%
    23:00 +17°C° 0 mm 4 m/s 684 mmHg 43%

    Amanhã, 20 Agosto, Domingo

    Tempo Temperatura Precipitação Vento Pressão Humidade
    00:00 +15°C° 0 mm 4 m/s 684 mmHg 48%
    01:00 +15°C° 0 mm 4 m/s 684 mmHg 53%
    02:00 +14°C° 0 mm 3 m/s 684 mmHg 58%
    03:00 +13°C° 0 mm 3 m/s 684 mmHg 61%
    04:00 +12°C° 0 mm 3 m/s 684 mmHg 64%
    05:00 +12°C° 0 mm 3 m/s 684 mmHg 67%
    06:00 +13°C° 0 mm 3 m/s 684 mmHg 65%
    07:00 +13°C° 0 mm 4 m/s 685 mmHg 62%
    08:00 +14°C° 0 mm 4 m/s 685 mmHg 60%
    09:00 +18°C° 0 mm 4 m/s 686 mmHg 52%
    10:00 +21°C° 0 mm 4 m/s 687 mmHg 43%
    11:00 +25°C° 0 mm 3 m/s 687 mmHg 35%
    12:00 +27°C° 0 mm 3 m/s 687 mmHg 30%
    13:00 +29°C° 0 mm 2 m/s 686 mmHg 24%
    14:00 +32°C° 0 mm 1 m/s 686 mmHg 19%
    15:00 +31°C° 0 mm 1 m/s 685 mmHg 18%
    16:00 +31°C° 0 mm 1 m/s 685 mmHg 17%
    17:00 +30°C° 0 mm 2 m/s 684 mmHg 16%
    18:00 +28°C° 0 mm 2 m/s 684 mmHg 20%
    19:00 +25°C° 0 mm 2 m/s 684 mmHg 24%
    20:00 +22°C° 0 mm 3 m/s 684 mmHg 28%
    21:00 +21°C° 0 mm 3 m/s 684 mmHg 33%
    22:00 +20°C° 0 mm 3 m/s 685 mmHg 37%
    23:00 +19°C° 0 mm 3 m/s 685 mmHg 42%

    Depois de amanhã, 21 Agosto, Segunda-feira

    Tempo Temperatura Precipitação Vento Pressão Humidade
    00:00 +19°C° 0 mm 3 m/s 685 mmHg 45%
    01:00 +18°C° 0 mm 3 m/s 685 mmHg 48%
    02:00 +17°C° 0 mm 3 m/s 684 mmHg 51%
    03:00 +16°C° 0 mm 3 m/s 684 mmHg 54%
    04:00 +16°C° 0 mm 3 m/s 684 mmHg 57%
    05:00 +14°C° 0 mm 3 m/s 684 mmHg 60%
    06:00 +16°C° 0 mm 3 m/s 684 mmHg 57%
    07:00 +15°C° 0 mm 4 m/s 685 mmHg 54%
    08:00 +17°C° 0 mm 4 m/s 685 mmHg 51%
    09:00 +20°C° 0 mm 4 m/s 686 mmHg 44%
    10:00 +23°C° 0 mm 4 m/s 686 mmHg 36%
    11:00 +27°C° 0 mm 3 m/s 687 mmHg 28%
    12:00 +29°C° 0 mm 3 m/s 686 mmHg 24%
    13:00 +31°C° 0 mm 2 m/s 685 mmHg 19%
    14:00 +32°C° 0 mm 2 m/s 685 mmHg 15%
    15:00 +32°C° 0 mm 2 m/s 684 mmHg 15%
    16:00 +33°C° 0 mm 3 m/s 684 mmHg 14%
    17:00 +31°C° 0 mm 3 m/s 683 mmHg 14%
    18:00 +29°C° 0 mm 3 m/s 683 mmHg 17%
    19:00 +26°C° 0 mm 3 m/s 683 mmHg 21%
    20:00 +22°C° 0 mm 3 m/s 683 mmHg 24%
    21:00 +21°C° 0 mm 2 m/s 683 mmHg 27%
    22:00 +20°C° 0 mm 2 m/s 683 mmHg 30%
    23:00 +19°C° 0 mm 2 m/s 683 mmHg 33%

    22 Agosto, Terça-feira

    Tempo Temperatura Precipitação Vento Pressão Humidade
    00:00 +19°C° 0 mm 2 m/s 683 mmHg 35%
    01:00 +18°C° 0 mm 2 m/s 683 mmHg 36%
    02:00 +18°C° 0 mm 2 m/s 682 mmHg 37%
    03:00 +17°C° 0 mm 2 m/s 682 mmHg 39%
    04:00 +16°C° 0 mm 2 m/s 682 mmHg 40%
    05:00 +16°C° 0 mm 2 m/s 681 mmHg 42%
    06:00 +17°C° 0 mm 2 m/s 682 mmHg 41%
    07:00 +17°C° 0 mm 2 m/s 683 mmHg 39%
    08:00 +18°C° 0 mm 2 m/s 683 mmHg 38%
    09:00 +23°C° 0 mm 2 m/s 684 mmHg 31%
    10:00 +27°C° 0 mm 2 m/s 684 mmHg 24%
    11:00 +31°C° 0 mm 2 m/s 685 mmHg 17%
    12:00 +32°C° 0 mm 2 m/s 684 mmHg 14%
    13:00 +34°C° 0 mm 2 m/s 683 mmHg 12%
    14:00 +35°C° 0 mm 2 m/s 682 mmHg 9%
    15:00 +35°C° 0 mm 2 m/s 682 mmHg 9%
    16:00 +35°C° 0 mm 2 m/s 682 mmHg 9%
    17:00 +35°C° 0 mm 2 m/s 681 mmHg 9%
    18:00 +31°C° 0 mm 2 m/s 681 mmHg 11%
    19:00 +28°C° 0 mm 2 m/s 681 mmHg 13%
    20:00 +25°C° 0 mm 1 m/s 681 mmHg 16%
    21:00 +24°C° 0 mm 1 m/s 681 mmHg 17%
    22:00 +23°C° 0 mm 2 m/s 681 mmHg 18%
    23:00 +21°C° 0 mm 2 m/s 681 mmHg 19%

    23 Agosto, Quarta-feira

    Tempo Temperatura Precipitação Vento Pressão Humidade
    00:00 +20°C° 0 mm 2 m/s 681 mmHg 19%
    01:00 +19°C° 0 mm 3 m/s 681 mmHg 19%
    02:00 +19°C° 0 mm 4 m/s 681 mmHg 19%
    03:00 +18°C° 0 mm 4 m/s 681 mmHg 19%
    04:00 +17°C° 0 mm 4 m/s 681 mmHg 19%
    05:00 +15°C° 0 mm 4 m/s 681 mmHg 19%
    06:00 +15°C° 0 mm 4 m/s 681 mmHg 20%
    07:00 +17°C° 0 mm 4 m/s 682 mmHg 22%
    08:00 +16°C° 0 mm 5 m/s 683 mmHg 24%
    09:00 +20°C° 0 mm 4 m/s 683 mmHg 20%
    10:00 +22°C° 0 mm 4 m/s 683 mmHg 17%
    11:00 +26°C° 0 mm 4 m/s 684 mmHg 13%
    12:00 +28°C° 0 mm 3 m/s 683 mmHg 12%
    13:00 +30°C° 0 mm 3 m/s 682 mmHg 11%
    14:00 +31°C° 0 mm 2 m/s 682 mmHg 9%
    15:00 +31°C° 0 mm 2 m/s 681 mmHg 9%
    16:00 +31°C° 0 mm 2 m/s 681 mmHg 9%
    17:00 +31°C° 0 mm 2 m/s 681 mmHg 9%
    18:00 +28°C° 0 mm 2 m/s 681 mmHg 10%
    19:00 +25°C° 0 mm 2 m/s 681 mmHg 12%
    20:00 +23°C° 0 mm 2 m/s 680 mmHg 14%
    21:00 +21°C° 0 mm 2 m/s 680 mmHg 14%
    22:00 +20°C° 0 mm 2 m/s 681 mmHg 14%
    23:00 +19°C° 0 mm 2 m/s 681 mmHg 14%

    24 Agosto, Quinta-feira

    Tempo Temperatura Precipitação Vento Pressão Humidade
    00:00 +18°C° 0 mm 2 m/s 680 mmHg 13%
    01:00 +17°C° 0 mm 2 m/s 680 mmHg 13%
    02:00 +17°C° 0 mm 2 m/s 679 mmHg 12%
    03:00 +16°C° 0 mm 2 m/s 679 mmHg 12%
    04:00 +16°C° 0 mm 2 m/s 679 mmHg 11%
    05:00 +15°C° 0 mm 2 m/s 679 mmHg 11%
    06:00 +16°C° 0 mm 2 m/s 680 mmHg 10%
    07:00 +17°C° 0 mm 2 m/s 680 mmHg 10%
    08:00 +18°C° 0 mm 2 m/s 681 mmHg 9%
    09:00 +24°C° 0 mm 2 m/s 681 mmHg 8%
    10:00 +28°C° 0 mm 2 m/s 682 mmHg 7%
    11:00 +32°C° 0 mm 2 m/s 682 mmHg 6%
    12:00 +34°C° 0 mm 2 m/s 682 mmHg 6%
    13:00 +36°C° 0 mm 2 m/s 681 mmHg 5%
    14:00 +37°C° 0 mm 2 m/s 680 mmHg 5%
    15:00 +37°C° 0 mm 2 m/s 680 mmHg 5%
    16:00 +35°C° 0 mm 1 m/s 680 mmHg 5%
    17:00 +35°C° 0 mm 1 m/s 679 mmHg 5%
    18:00 +32°C° 0 mm 1 m/s 679 mmHg 7%
    19:00 +28°C° 0 mm 1 m/s 679 mmHg 8%
    20:00 +25°C° 0 mm 1 m/s 679 mmHg 10%
    21:00 +24°C° 0 mm 1 m/s 679 mmHg 10%
    22:00 +23°C° 0 mm 1 m/s 679 mmHg 11%
    23:00 +22°C° 0 mm 1 m/s 679 mmHg 11%
    Mostrar mais